This is the latest recevied weather packets stored in our database for station/object AA8FM-13. If no packets are shown the sender has not sent any weather packets the latest 10 day(s).
| Time | Temp. | Humidity | Pressure | Rain* | Wind** | Luminosity | Snow |
|---|---|---|---|---|---|---|---|
| 1778162115 | 12.22° C | 65% | 1010.9 hPa | 0 mm | - | 423 W/m² | - |
| 1778161812 | 12.22° C | 66% | 1010.9 hPa | 0 mm | - | 408 W/m² | - |
| 1778161509 | 11.67° C | 71% | 1011 hPa | 0 mm | - | 394 W/m² | - |
| 1778161204 | 12.78° C | 72% | 1011.1 hPa | 0 mm | - | 381 W/m² | - |
| 1778160900 | 12.22° C | 73% | 1011.3 hPa | 0 mm | - | 369 W/m² | - |
| 1778160599 | 11.67° C | 75% | 1011.1 hPa | 0 mm | - | 355 W/m² | - |
| 1778160295 | 11.67° C | 75% | 1011.4 hPa | 0 mm | - | 341 W/m² | - |
| 1778159991 | 11.67° C | 76% | 1011.3 hPa | 0 mm | - | 328 W/m² | - |
| 1778159688 | 11.11° C | 78% | 1011.2 hPa | 0 mm | - | 262 W/m² | - |
| 1778159385 | 10.56° C | 81% | 1011.3 hPa | 0 mm | - | 142 W/m² | - |
| 1778159082 | 10° C | 82% | 1011.4 hPa | 0 mm | - | 125 W/m² | - |
| 1778158781 | 10° C | 83% | 1011.1 hPa | 0 mm | - | 58 W/m² | - |
| 1778158479 | 10° C | 82% | 1011.4 hPa | 0 mm | - | 71 W/m² | - |
| 1778158176 | 9.44° C | 86% | 1011.2 hPa | 0 mm | - | 85 W/m² | - |
| 1778157872 | 9.44° C | 84% | 1011.5 hPa | 0 mm | - | 64 W/m² | - |
| 1778157571 | 10° C | 84% | 1011.5 hPa | 0 mm | - | 87 W/m² | - |
| 1778157268 | 10° C | 85% | 1011.5 hPa | 0 mm | - | 88 W/m² | - |
| 1778156963 | 9.44° C | 85% | 1011.5 hPa | 0 mm | - | 99 W/m² | - |
| 1778156653 | 9.44° C | 85% | 1011.3 hPa | 0 mm | - | 73 W/m² | - |
| 1778156350 | 9.44° C | 86% | 1011.6 hPa | 0 mm | - | 84 W/m² | - |
| 1778156045 | 9.44° C | 86% | 1011.4 hPa | 0 mm | - | 85 W/m² | - |
| 1778155742 | 9.44° C | 86% | 1011.5 hPa | 0 mm | - | 79 W/m² | - |
| 1778155439 | 9.44° C | 87% | 1011.5 hPa | 0 mm | - | 75 W/m² | - |
| 1778155135 | 9.44° C | 86% | 1011.2 hPa | 0 mm | - | 67 W/m² | - |
| 1778154831 | 9.44° C | 89% | 1011.3 hPa | 0 mm | - | 64 W/m² | - |
* Rain latest hour (hover to see other rain measurements)
** Current wind speed in m/s (hover to see current wind gust speed)